Location: Warszawa
(52.2500°N, 21.0000°E)
Time: 09:01:58
(UTC+02:00)

Gurwin Techsat 1B - Pass Details

Date: 02 May 2024
Orbit: 811 x 812 km, 98.9° (Epoch: 20 May)

Event Time Altitude Azimuth Distance (km) Brightness Sun altitude
Rises 02:37:02 0° 30° (NNE) 3,348 13.6 -17.1°
Reaches altitude 10° 02:40:52 10° 58° (ENE) 2,409 12.1 -16.8°
Maximum altitude 02:43:14 13° 84° (E) 2,201 11.4 -16.6°
Drops below altitude 10° 02:45:37 10° 111° (ESE) 2,401 11.2 -16.4°
Sets 02:49:23 0° 139° (SE) 3,325 11.6 -16.1°
